Terminal Aerodrome Forecast
Issued by NWS

Home | Current Version | Previous Version | Text Only | Print | Product List | Glossary On
Versions: 1 2 3 4 5 6 7 8 9 10 11 12
000
FTUS41 KPHI 291735
TAFMIV
TAF
KMIV 291735Z 2918/3018 15008KT P6SM SCT035 OVC200
     FM292200 17005KT P6SM -SHRA FEW030 OVC060
      TEMPO 2923/3003 4SM SHRA OVC030
     FM300900 15005KT 3SM SHRA OVC005
     FM301200 VRB03KT 2SM -RA BR OVC003=

USA.gov is the U.S. government's official web portal to all federal, state and local government web resources and services.